TIME,DELAY(SENSOR),PRES,T(CTD),SAL,OXYGEN,RAWTEMP,T(OPTODE),TCPHASE,FLUOR,BETA(BETA700),BETA(BETA412),BETA(BETA440),CDOM,C(CSC),ED(ED412.40),ED(ED444.00),ED(ED489.70),ED(ED554.30),LU(LU411.80),LU(LU443.40),LU(LU489.60),LU(LU554.10),COMP,TILTX,TILTX(TILTY),CHECK
1354656264,5807,497.5799865722656000,6.2621002197265625,34.1449012756347660,69.0170211791992200,610.7330932617188000,6.2369961738586430,50.3898696899414060,52,105,90,80,79,15204,2147746084,2147417517,2148007049,2147871488,2147633618,2147075035,2148251355,2147197458,1844,4,13,23955
1354656407,5808,486.8299865722656000,6.3976001739501950,34.1352996826171900,74.0045623779296900,606.2183227539062000,6.3832068443298340,49.7139091491699200,52,104,88,80,78,15203,2147748562,2147420882,2148002651,2147872000,2147632082,2147074276,2148244169,2147199186,1745,4,13,45130
1354656583,5806,473.2999877929687500,6.7323999404907230,34.1248016357421900,83.8411331176757800,595.6677246093750000,6.7241268157958980,48.3984107971191400,52,104,89,80,79,15202,2147743899,2147416950,2148006262,2147874230,2147630884,2147077458,2148248694,2147202048,1599,4,13,48193
1354656697,5808,462.2000122070312500,6.9430999755859375,34.1180992126464840,90.6814270019531200,589.2675781250000000,6.9304161071777340,47.5307998657226560,52,103,89,80,79,15202,2147747483,2147420379,2148003721,2147874468,2147629476,2147075922,2148247552,2147200457,2021,4,13,54234
1354656807,5809,451.0199890136719000,7.2905998229980470,34.1118011474609400,99.1231994628906200,578.8427124023438000,7.2656331062316895,46.4556388854980500,50,104,86,81,78,15200,2147745462,2147421440,2148003492,2147875556,2147630400,2147077568,2148242304,2147200420,1408,4,13,53269
1354656919,5808,440.0499877929687500,7.4833998680114750,34.1108016967773440,107.6636962890625000,572.3522949218750000,7.4738330841064450,45.4651298522949200,52,106,95,80,77,15199,2147746057,2147418020,2148001901,2147873325,2147629540,2147073188,2148237284,2147199606,191,4,13,13779
1354657040,5807,429.1000061035156000,7.7678999900817870,34.1152000427246100,114.4950027465820300,562.6026000976562000,7.7858939170837400,44.6253585815429700,51,104,87,81,77,15200,2147743561,2147417737,2148001563,2147874194,2147630272,2147079003,2148240941,2147201033,166,4,13,60346
1354657175,5811,418.1000061035156000,8.0840997695922850,34.1214981079101560,119.2398986816406200,553.7155151367188000,8.0696363449096680,44.0184211730957000,50,107,89,80,76,15198,2147745673,2147416896,2148002587,2147875995,2147623680,2147085540,2148240182,2147200996,373,4,13,51320
1354657307,5808,407.2300109863281000,8.2370996475219730,34.1161994934082000,127.3177032470703100,548.7692260742188000,8.2272720336914060,43.1767883300781250,50,103,90,81,75,15200,2147742134,2147416658,2147999442,2147875867,2147625810,2147085010,2148238592,2147200356,1602,4,13,12071
1354657439,5810,395.7600097656250000,8.4878997802734380,34.1124992370605500,135.2769927978515600,540.8427734375000000,8.4794645309448240,42.3267784118652340,50,103,87,80,75,15201,2147744731,2147422573,2148004461,2147873188,2147622043,2147089910,2148235821,2147197385,2632,4,13,952
1354657551,5808,385.3399963378906000,8.7440996170043950,34.1142997741699200,142.9544067382812500,532.3240966796875000,8.7499408721923830,41.5180702209472660,50,105,89,80,74,15199,2147741403,2147416457,2148003529,2147874587,2147620699,2147086976,2148234221,2147200978,3485,4,13,26117
1354657672,5807,374.0599975585937500,9.1125001907348630,34.1092987060546900,155.0632934570312500,521.4995727539062000,9.0928153991699220,40.3408699035644500,50,106,91,80,73,15199,2147738249,2147422555,2148000612,2147873115,2147618422,2147092379,2148232109,2147199597,3114,4,13,46057
1354657793,5807,362.9400024414062500,9.2665996551513670,34.1122016906738300,160.6510925292968800,515.6854248046875000,9.2766199111938480,39.8055610656738300,50,109,88,81,73,15199,2147737536,2147420717,2148002715,2147873600,2147616941,2147092416,2148230025,2147201389,201,3,13,28343
1354657916,5809,352.5799865722656000,9.4637002944946290,34.1197013854980500,163.4100952148437500,509.2182006835937500,9.4807729721069340,39.4854698181152340,50,105,87,79,74,15198,2147735122,2147419245,2148003456,2147871872,2147615040,2147091986,2148230089,2147204873,3052,3,13,40087
1354658059,5806,342.0299987792969000,9.8295001983642580,34.1218986511230500,173.7514038085937500,498.6965942382812500,9.8122768402099610,38.5458412170410160,50,107,86,81,73,15196,2147736713,2147422171,2148003757,2147874724,2147612800,2147092498,2148229485,2147202249,2252,4,13,49976
1354658227,5808,329.1300048828125000,10.2389001846313480,34.1290016174316400,182.0314941406250000,483.9908142089844000,10.2743301391601560,37.7194290161132800,50,107,86,80,72,15198,2147733668,2147421229,2148005824,2147872475,2147612196,2147097170,2148228662,2147203062,833,3,14,14669
1354658337,5809,318.5400085449219000,10.6978998184204100,34.1297988891601560,189.4407043457031200,471.0364074707031000,10.6801795959472660,37.0077896118164060,50,107,88,81,72,15197,2147733348,2147423506,2148005769,2147873380,2147610477,2147103140,2148224365,2147205220,475,4,13,64183
1354658461,5805,306.4700012207031000,11.1765003204345700,34.1419982910156250,194.4617004394531200,455.9902954101562500,11.1502599716186520,36.4361610412597660,50,108,89,81,71,15197,2147731090,2147419958,2148008018,2147870893,2147611008,2147106386,2148218166,2147204928,999,4,13,56925
1354658582,5806,294.8900146484375000,11.4163999557495120,34.1581993103027340,196.9795989990234400,447.7110900878906000,11.4083595275878900,36.1427192687988300,49,106,86,80,70,15196,2147728155,2147422272,2148006134,2147869001,2147605988,2147109056,2148215314,2147202139,2381,4,14,27179
1354658703,5810,284.3699951171875000,11.6396999359130860,34.1601982116699200,198.6190032958984400,440.0786132812500000,11.6459503173828120,35.9169502258300800,48,106,86,82,70,15195,2147732013,2147423734,2148010587,2147871195,2147605238,2147111222,2148225252,2147206153,2495,4,13,45314
1354658848,5809,274.0199890136719000,12.4034996032714840,34.2140998840332000,204.2837066650390600,415.6781005859375000,12.4034595489501950,35.1823387145996100,48,107,85,80,70,15194,2147726637,2147423798,2148014646,2147872914,2147603328,2147121472,2148220937,2147206939,632,4,13,63352
1354659013,5809,263.3999938964844000,12.8832998275756840,34.2342987060546900,207.9808959960937500,399.4389038085937500,12.9060001373291020,34.7090492248535160,48,105,85,80,70,15194,2147724516,2147426614,2148021348,2147870564,2147600960,2147126189,2148216374,2147205677,1231,3,14,2503
1354659158,5809,251.5399932861328000,13.6927995681762700,34.3130989074707000,210.1134033203125000,374.5621948242187500,13.6736297607421880,34.2022781372070300,48,104,85,80,69,15194,2147724434,2147432082,2148035757,2147871789,2147595913,2147129627,2148221220,2147208548,3546,3,13,45186
1354659268,5809,240.2500000000000000,13.8972997665405270,34.3168983459472660,211.0111999511718800,366.4713134765625000,13.9227800369262700,34.0276985168457000,49,104,86,80,67,15191,2147723620,2147448685,2148085915,2147871725,2147590939,2147146258,2148243574,2147213504,2159,3,14,19680
1354659381,5809,228.0000000000000000,14.4850997924804690,34.3571014404296900,209.7855072021484400,347.7638854980469000,14.4979896545410160,33.8155403137207000,49,105,88,79,68,15192,2147723264,2147477997,2148178157,2147874240,2147591835,2147160548,2148285147,2147213074,2020,3,13,9471
1354659491,5807,217.3800048828125000,15.1771001815795900,34.4333000183105500,209.1141052246093800,320.3013000488281000,15.3405199050903320,33.4454002380371100,49,104,84,80,67,15190,2147723136,2147463908,2148125833,2147877394,2147589430,2147155739,2148255890,2147215232,1359,3,15,61093
1354659634,5811,206.9799957275390600,16.2315006256103500,34.5500984191894500,210.2402038574218800,291.3389892578125000,16.2271595001220700,32.9595718383789060,50,103,86,81,66,15192,2147726509,2147518372,2148268745,2147871222,2147586532,2147195675,2148315803,2147219602,991,3,15,33658
1354659797,5807,198.8000030517578000,17.0583992004394530,34.6500015258789060,210.6313934326172000,267.0882873535156000,16.9685192108154300,32.5904197692871100,49,103,86,80,66,15189,2147722980,2147495232,2148178404,2147871698,2147581750,2147194797,2148272658,2147214656,975,3,15,33670
1354659874,5810,195.2299957275390600,17.3894996643066400,34.6953010559082000,211.2915039062500000,255.1163940429687500,17.3342704772949220,32.3841400146484400,50,104,90,81,66,15185,2147721024,2147504475,2148195977,2147873682,2147581558,2147198756,2148276827,2147214893,1527,3,14,62881
1354659951,5808,191.1999969482422000,17.4783000946044920,34.7150993347168000,212.3766021728515600,250.6822967529297000,17.4697093963623050,32.2618293762207000,50,103,87,80,66,15186,2147725805,2147522194,2148226349,2147872374,2147582802,2147208192,2148297417,2147219492,2699,3,15,53977
1354660019,5807,187.2200012207031200,17.6007003784179700,34.7304992675781250,212.4308013916015600,246.1192016601562500,17.6090698242187500,32.1947898864746100,50,101,88,78,65,15187,2147731154,2147549440,2148290715,2147875053,2147584137,2147225033,2148322029,2147221604,2863,3,15,25277
1354660085,5807,183.3899993896484400,18.0114994049072270,34.7845001220703100,212.5155944824218800,234.1539001464843800,17.9744892120361330,32.0228614807128900,50,103,88,81,65,15185,2147737216,2147598116,2148404050,2147874313,2147586148,2147256155,2148382720,2147224941,2755,3,15,30368
1354660162,5807,179.3999938964843800,18.2413005828857420,34.8193016052246100,213.8589935302734400,226.0955963134765600,18.2205696105957030,31.8380603790283200,50,104,88,79,65,15183,2147749476,2147635099,2148474669,2147870939,2147586587,2147274752,2148407195,2147226614,2610,2,15,12698
1354660239,5811,175.9400024414062500,18.4130001068115230,34.8451995849609400,214.8462066650390600,220.5133056640625000,18.3910408020019530,31.7073001861572270,50,103,88,79,66,15184,2147748809,2147622080,2148431204,2147873664,2147585380,2147274797,2148392493,2147228626,3184,3,15,11108
1354660341,5812,172.0399932861328000,18.8908996582031250,34.9065017700195300,214.4367980957031200,205.4949951171875000,18.8497295379638670,31.5230293273925780,52,102,87,81,64,15182,2147754441,2147644004,2148469257,2147875602,2147591286,2147292763,2148407012,2147228114,1007,2,15,34446
1354660473,5808,168.0500030517578000,19.1924991607666000,34.9527015686035160,215.4449005126953000,194.9022979736328000,19.1733207702636720,31.3247509002685550,53,102,86,80,63,15179,2147756964,2147641883,2148449682,2147874258,2147592813,2147298276,2148393837,2147228973,840,2,15,18844
1354660594,5807,164.0099945068359400,19.3215007781982420,34.9772987365722660,217.2841033935547000,190.2565002441406200,19.3152809143066400,31.1645908355712900,53,103,86,80,63,15180,2147763675,2147654336,2148457673,2147873856,2147595273,2147307629,2148403337,2147230262,3579,3,15,42683
1354660691,5805,159.3999938964843800,19.5081005096435550,35.0015983581543000,218.0473022460937500,184.5500946044922000,19.4896697998046880,31.0471096038818360,55,101,91,80,64,15175,2147826624,2147851337,2148869046,2147876598,2147616740,2147422354,2148589165,2147244324,3543,3,15,5874
1354660768,5803,155.2700042724609400,19.7845001220703120,35.0405998229980500,217.9893035888672000,175.5106964111328000,19.7660007476806640,30.9288196563720700,55,103,87,81,64,15175,2147832228,2147856557,2148853641,2147874340,2147622080,2147432246,2148594870,2147241115,588,2,15,46129
1354660845,5810,151.6699981689453000,20.0009002685546880,35.0830001831054700,220.2156982421875000,168.5171966552734400,19.9798603057861330,30.7198295593261720,56,105,88,81,64,15168,2147929033,2148146084,2149459977,2147880640,2147658962,2147606262,2148882724,2147264905,398,2,15,7195
1354660933,5806,147.9700012207031200,20.2028007507324220,35.1110992431640600,221.3128051757812500,162.1546936035156200,20.1744899749755860,30.5787200927734380,56,105,89,80,63,15171,2147882203,2147965312,2149041307,2147879789,2147642578,2147506249,2148685193,2147253156,3258,2,15,52039
1354661056,5808,144.0299987792968800,20.4878997802734380,35.1346015930175800,222.3755950927734400,153.0841979980468800,20.4520893096923830,30.4044094085693360,59,106,89,81,63,15169,2147902893,2147976338,2149055524,2147876672,2147648539,2147516644,2148697353,2147253979,214,3,15,57983
1354661221,5808,140.2200012207031200,20.7147006988525400,35.1503982543945300,222.7189025878906200,144.8856048583984400,20.7031402587890620,30.2787799835205080,68,110,89,81,63,15154,2147956864,2148090752,2149258605,2147881051,2147672914,2147583634,2148787200,2147258185,1278,2,15,20942
1354661355,5807,135.6000061035156200,20.9796009063720700,35.1682014465332000,224.7487945556640600,136.1092987060547000,20.9720401763916000,30.0619392395019530,73,112,89,82,63,15147,2148016685,2148197165,2149409947,2147882587,2147697005,2147638564,2148854774,2147265197,1378,2,15,44329
1354661432,5808,131.6900024414062500,21.1385993957519530,35.1797981262207000,225.1900024414062500,132.6145019531250000,21.0791702270507800,29.9940299987792970,75,115,89,82,63,15138,2148108544,2148357376,2149682102,2147887049,2147736420,2147730340,2148971830,2147272484,1514,2,15,50028
1354661531,5806,127.8700027465820300,21.3651008605957030,35.1941986083984400,226.8171997070312500,123.5728988647461000,21.3564796447753900,29.7963008880615230,84,114,91,82,62,15135,2148173494,2148440384,2149794962,2147888128,2147764086,2147771730,2149016585,2147280182,1553,2,16,17402
1354661676,5809,124.0000000000000000,21.5821990966796880,35.1902999877929700,228.9752960205078000,116.6080017089843800,21.5702495574951170,29.6007499694824220,87,115,92,82,63,15131,2148329718,2148651986,2150110637,2147895021,2147826194,2147872969,2149142317,2147288128,1936,3,15,24854
1354661808,5808,119.8499984741211000,21.7938995361328120,35.1853981018066400,232.2890930175781200,109.5136032104492200,21.7881298065185550,29.3502502441406250,96,119,88,82,62,15113,2148548717,2148929691,2150510409,2147901522,2147910299,2147993453,2149284827,2147305307,2489,2,15,14937
1354661896,5806,115.3099975585937500,21.8567008972167970,35.1982002258300800,232.6923980712890600,107.9576034545898400,21.8359394073486330,29.3112907409667970,98,117,90,83,61,15109,2148712246,2149103332,2150702043,2147908461,2147974153,2148061842,2149344722,2147313033,2945,2,15,62977
1354661974,5807,109.4899978637695300,22.0666999816894530,35.1747016906738300,233.6215057373047000,101.1810989379882800,22.0442409515380860,29.1805191040039060,110,120,91,82,61,15096,2149091053,2149600914,2151397586,2147926390,2148122907,2148277595,2149609289,2147338176,3189,2,15,15629
1354662029,5810,104.7600021362304700,22.1774997711181640,35.1857986450195300,234.9649047851562500,96.9869232177734400,22.1732292175292970,29.0639190673828120,116,121,92,82,61,15086,2149456786,2150044717,2151961289,2147941110,2148257453,2148461449,2149814116,2147358500,3097,2,16,45080
1354662084,5810,100.1800003051757800,22.2485008239746100,35.1842002868652340,235.8572998046875000,94.8348770141601600,22.2394504547119140,28.9948692321777340,120,121,91,83,62,15079,2149869595,2150501997,2152480521,2147961792,2148411849,2148645540,2149997513,2147380169,3033,2,15,63726
1354662139,5812,95.9800033569336000,22.5009002685546880,35.1871986389160160,236.3896026611328000,87.1547164916992200,22.4758796691894530,28.8728904724121100,123,125,90,83,63,15075,2150616466,2151428342,2153683968,2148002806,2148687670,2149024841,2150438116,2147429897,3351,2,16,37096
1354662194,5812,92.5500030517578100,22.5965003967285160,35.1875000000000000,237.6757965087890600,83.4996337890625000,22.5884704589843750,28.7673797607421880,123,123,90,82,60,15074,2151595254,2152656100,2155301394,2148055881,2149055222,2149540690,2151056877,2147492013,3248,2,16,61878
1354662249,5810,89.8399963378906200,22.6769008636474600,35.1845016479492200,238.9022979736328000,80.9371719360351600,22.6674404144287100,28.6787700653076170,124,120,90,83,62,15069,2152547017,2153791360,2156725632,2148110774,2149408877,2150005568,2151580690,2147548891,3346,1,16,35249
1354662324,5810,87.5199966430664000,22.7852993011474600,35.1827011108398440,239.2489013671875000,77.9214401245117200,22.7604103088378900,28.6250991821289060,131,124,88,84,62,15063,2153267209,2154580160,2157598902,2148154889,2149673051,2150301696,2151889069,2147584676,754,2,16,4474
1354662741,5810,85.5100021362304700,23.4668006896972660,35.1920013427734400,242.0364990234375000,55.8251800537109400,23.4426994323730470,28.2227897644042970,118,121,92,85,61,15078,2154594898,2156050240,2159261814,2148208768,2150189824,2150899821,2152522194,2147657920,3257,2,16,21335
1354662941,5811,83.2699966430664000,23.4689998626709000,35.1958999633789060,243.7519989013672000,55.1123580932617200,23.4647502899169920,28.1376991271972660,112,119,90,83,61,15075,2156093933,2157813924,2161369499,2148316196,2150781504,2151653458,2153353499,2147755446,2887,2,16,54945
1354663007,5809,80.8899993896484400,23.6516990661621100,35.1772003173828100,243.3607940673828000,47.6781616210937500,23.6948108673095700,28.0626106262207030,114,121,90,83,61,15071,2157833627,2159738724,2163542601,2148424603,2151519588,2152519442,2154241289,2147857462,2893,1,16,25971
1354663062,5810,79.3799972534179700,24.0730991363525400,35.1576995849609400,241.9095001220703000,37.0633010864257800,24.0237407684326170,27.9954700469970700,123,120,88,83,62,15059,2158942546,2161016640,2165019044,2148493165,2152013056,2153109074,2154859648,2147925366,2450,1,16,7584
1354663284,5809,77.1200027465820300,24.1532993316650400,35.1661987304687500,241.1038970947265600,33.2658996582031250,24.1415500640869140,27.9841709136962900,108,120,89,84,60,15062,2162922029,2165667245,2170492416,2148755739,2153762998,2155226934,2157077696,2148176969,1573,2,16,34683
1354663350,5811,74.6999969482421900,24.2418994903564450,35.1646003723144500,240.8522033691406200,30.3583507537841800,24.2318000793457030,27.9593696594238280,112,120,92,85,58,15058,2165385398,2168308900,2173304411,2148944676,2154950336,2156532059,2158317485,2148328612,1525,1,16,35714
1354663405,5810,72.7200012207031200,24.3742008209228500,35.1691017150878900,240.2834014892578000,26.4520797729492200,24.3531208038330080,27.9363899230957030,111,120,92,84,58,15052,2166969865,2169850496,2174721874,2149091291,2155757915,2157323172,2158983808,2148425152,1199,2,16,32138
1354663460,5811,71.0400009155273400,24.4673995971679700,35.1747016906738300,239.8350067138672000,23.1658897399902340,24.4552497863769530,27.9159393310546880,107,119,92,83,61,15054,2169020507,2172095369,2177177243,2149230354,2156787337,2158480969,2160128566,2148555739,777,1,16,58886
1354663561,5807,69.0599975585937500,24.9197006225585940,35.2075004577636700,237.7158050537109400,9.2690706253051760,24.8877506256103500,27.8393707275390620,99,120,91,84,58,15053,2169603264,2172395008,2176921097,2149374537,2157526966,2158988260,2160287670,2148599789,584,2,16,9652
1354663649,5807,67.3499984741211000,25.0167007446289060,35.2215995788574200,236.9633026123047000,5.4213171005249020,25.0076999664306640,27.8258895874023440,95,120,92,83,59,15063,2169268772,2171746221,2175690121,2149365165,2158030838,2159230116,2160201170,2148594605,3201,2,16,7352
1354663737,5807,65.3399963378906200,25.1581001281738280,35.2355995178222660,236.2321929931640600,1.4163049459457397,25.1326408386230470,27.8096103668212900,88,120,91,82,57,15058,2172424768,2175397796,2179648585,2149767515,2160388900,2161662683,2162352448,2148864393,2898,2,16,28863
1354663825,5810,63.2500000000000000,25.2380008697509770,35.2447013854980500,235.6902008056640600,-1.2333780527114868,25.2153396606445300,27.8014106750488280,83,120,91,85,58,15055,2173350262,2176330852,2180336027,2149945819,2161677513,2162797659,2163112630,2148965174,3221,2,16,60262
1354663904,5810,60.5999984741210940,25.2607994079589840,35.2476005554199200,235.4951019287109400,-2.4835729598999023,25.2543792724609380,27.7949008941650400,78,120,92,85,57,15056,2174900928,2177871808,2181558528,2150339090,2163719661,2164585883,2164295341,2149147757,3515,2,16,50483
1354663959,5807,57.7599983215332000,25.3048992156982420,35.2501983642578100,235.3910980224609400,-3.8978130817413330,25.2985591888427730,27.7822494506835940,78,122,92,84,57,15055,2175339977,2178244964,2181504822,2150533257,2165161782,2165763648,2164937801,2149234761,191,2,16,8478
1354664014,5809,54.9199981689453100,25.3398990631103500,35.2505989074707000,235.1345062255859400,-5.0418910980224610,25.3342990875244140,27.7798194885253900,74,123,93,86,56,15024,2177493165,2180569344,2183741732,2150973568,2167647862,2168111414,2166685933,2149474002,3345,1,16,55972
1354664069,5817,52.3400001525878900,25.3449001312255860,35.2476005554199200,235.2050933837890600,-5.2321939468383790,25.3402404785156250,27.7741909027099600,75,121,91,84,58,15041,2181513398,2185202532,2188584557,2151775186,2171356196,2171846381,2169729069,2149893083,2690,2,16,46081
1354664124,5808,49.8699989318847660,25.3586006164550780,35.2466011047363300,235.0155029296875000,-5.7324891090393070,25.3558807373046880,27.7766990661621100,73,120,91,84,56,15051,2187372324,2191829211,2195591296,2153109129,2176487350,2177065216,2173994669,2150539190,2509,0,17,59134
1354664179,5809,47.5000000000000000,25.3661003112792970,35.2476005554199200,235.0272979736328000,-5.9855370521545410,25.3637790679931640,27.7730598449707030,67,119,92,84,59,15055,2193756946,2199160137,2203485348,2154434395,2182501650,2183318354,2179093796,2151229705,2526,1,16,6295
1354664236,5807,45.0299987792968750,25.3687000274658200,35.2476997375488300,235.0679931640625000,-6.1042428016662600,25.3674907684326170,27.7697296142578120,65,125,92,84,58,15054,2197111725,2202508224,2206837430,2155622811,2186723730,2187403017,2182004333,2151712100,2648,1,16,50001
1354664291,5806,42.5900001525878900,25.3693008422851560,35.2472000122070300,235.2187042236328000,-6.1476140022277830,25.3688507080078120,27.7624092102050780,63,117,91,85,58,15055,2201380388,2206973851,2211464137,2157098907,2191593801,2192238491,2185504356,2152315629,2651,1,16,39649
1354664346,5806,40.0000000000000000,25.3763999938964840,35.2472991943359400,235.3056945800781200,-6.3506040573120120,25.3751907348632800,27.7559509277343750,64,118,90,84,56,15046,2215214281,2223039131,2229314587,2160936018,2204444461,2205845366,2196658587,2154050258,2483,2,16,39276
1354664401,5807,37.3100013732910160,25.3803997039794920,35.2467994689941400,235.3563995361328000,-6.4694080352783200,25.3789100646972660,27.7521705627441400,62,119,94,84,54,15054,2214217243,2220392100,2225226706,2162262500,2205141714,2205458889,2195197769,2154214555,2182,1,16,29918
1354664456,5810,34.4399986267089840,25.3834991455078120,35.2470016479492200,235.1620941162109400,-6.6099472045898440,25.3833007812500000,27.7593002319335940,62,118,91,85,56,15060,2225833554,2232994916,2238661558,2167357147,2216467072,2216829193,2204037083,2155996809,1992,1,16,35127
1354664511,5821,31.5100002288818360,25.3903999328613280,35.2453002929687500,235.2928924560547000,-6.8093957901000980,25.3895301818847660,27.7508392333984380,62,128,93,83,56,15064,2233325120,2240406528,2246173970,2171382473,2224681609,2224561737,2209589458,2157385161,1902,1,16,43483
1354664568,5807,28.2600002288818360,25.3987007141113280,35.2459983825683600,235.2633056640625000,-7.0853590965271000,25.3981609344482420,27.7488002777099600,61,116,93,85,57,15062,2266334427,2278077421,2288105280,2186484434,2256788827,2258274834,2237169709,2163110070,1983,1,16,3672
1354664623,5811,25.1700000762939450,25.4037990570068360,35.2471008300781250,235.4382019042968800,-7.3219838142395020,25.4055595397949220,27.7380008697509770,61,117,92,85,57,15060,2295026505,2310714642,2324778688,2205416292,2285452864,2287511488,2260465353,2168601417,2104,1,16,62677
